SDG090 LFRB-LICC

Flight info

Callsign SDG090
Flight time N/A
Altitude 35000
Route LUC CAR PAL
Aircraft A321/M-L/C

Departure

Time N/A
Airport Brest Bretagne airport (LFRB)

Arrival

Time 2026-05-05 15:59
Airport Catania-Fontanarossa Airport (LICC)
Time Latitude Longitude Altitude Speed Heading
2026-05-05 15:30 37.87830 13.66849 26256 ft 446 kts 113°
2026-05-05 15:30 37.86680 13.70460 25564 ft 443 kts 113°
2026-05-05 15:30 37.85544 13.74022 24845 ft 433 kts 113°
2026-05-05 15:30 37.84430 13.77514 24058 ft 429 kts 114°
2026-05-05 15:31 37.83313 13.81006 23375 ft 426 kts 114°
2026-05-05 15:31 37.82216 13.84430 22665 ft 418 kts 114°
2026-05-05 15:31 37.81144 13.87772 21833 ft 407 kts 114°
2026-05-05 15:31 37.80085 13.91069 21099 ft 401 kts 114°
2026-05-05 15:32 37.79057 13.94268 20387 ft 392 kts 114°
2026-05-05 15:32 37.78043 13.97426 19748 ft 386 kts 114°
2026-05-05 15:32 37.77054 14.00505 19262 ft 376 kts 114°
2026-05-05 15:32 37.76085 14.03516 18583 ft 366 kts 114°
2026-05-05 15:33 37.75140 14.06445 17913 ft 360 kts 114°
2026-05-05 15:33 37.74198 14.09360 17433 ft 350 kts 114°
2026-05-05 15:33 37.73294 14.12155 16931 ft 343 kts 114°
2026-05-05 15:33 37.72402 14.14920 16554 ft 338 kts 114°
2026-05-05 15:34 37.71528 14.17627 16210 ft 333 kts 114°
2026-05-05 15:34 37.70670 14.20279 15858 ft 327 kts 114°
2026-05-05 15:34 37.69920 14.22594 15362 ft 323 kts 114°
2026-05-05 15:34 37.69077 14.25192 14723 ft 320 kts 114°
2026-05-05 15:35 37.68247 14.27742 14108 ft 316 kts 114°
2026-05-05 15:35 37.67422 14.30283 13499 ft 312 kts 114°
2026-05-05 15:35 37.66605 14.32797 13130 ft 308 kts 114°
2026-05-05 15:35 37.65802 14.35257 12851 ft 301 kts 113°
2026-05-05 15:36 37.65008 14.37689 12604 ft 293 kts 113°
2026-05-05 15:36 37.64234 14.40056 12099 ft 298 kts 113°
2026-05-05 15:36 37.63444 14.42477 11450 ft 300 kts 113°
2026-05-05 15:36 37.62698 14.44904 11024 ft 293 kts 107°
2026-05-05 15:37 37.62300 14.47415 10693 ft 289 kts 93°
2026-05-05 15:37 37.62309 14.49911 10221 ft 286 kts 84°
2026-05-05 15:37 37.62494 14.52348 10029 ft 276 kts 82°
2026-05-05 15:37 37.62694 14.54720 9843 ft 268 kts 82°
2026-05-05 15:38 37.62877 14.57028 9567 ft 263 kts 83°
2026-05-05 15:38 37.63044 14.59298 9304 ft 258 kts 83°
2026-05-05 15:38 37.63201 14.61532 9133 ft 249 kts 84°
2026-05-05 15:38 37.63331 14.63434 9002 ft 241 kts 84°
2026-05-05 15:39 37.63473 14.65513 8985 ft 238 kts 85°
2026-05-05 15:39 37.63614 14.67592 8851 ft 236 kts 85°
2026-05-05 15:39 37.63752 14.69653 8705 ft 235 kts 86°
2026-05-05 15:39 37.63545 14.71676 8531 ft 233 kts 115°
2026-05-05 15:40 37.62601 14.73276 8355 ft 228 kts 143°
2026-05-05 15:40 37.61198 14.74143 7987 ft 226 kts 170°
2026-05-05 15:40 37.59640 14.74405 7655 ft 225 kts 175°
2026-05-05 15:40 37.58078 14.74610 7329 ft 225 kts 175°
2026-05-05 15:41 37.56531 14.74795 7086 ft 222 kts 182°
2026-05-05 15:41 37.55062 14.74290 7058 ft 221 kts 214°
2026-05-05 15:41 37.54020 14.72898 7003 ft 220 kts 244°
2026-05-05 15:41 37.53639 14.71077 6881 ft 217 kts 264°
2026-05-05 15:42 37.53504 14.69205 6768 ft 214 kts 265°
2026-05-05 15:42 37.53369 14.67343 6662 ft 213 kts 264°
2026-05-05 15:42 37.53222 14.65486 6538 ft 213 kts 264°
2026-05-05 15:42 37.53065 14.63621 6414 ft 213 kts 264°
2026-05-05 15:43 37.52907 14.61793 6384 ft 209 kts 264°
2026-05-05 15:43 37.52747 14.59964 6341 ft 208 kts 264°
2026-05-05 15:43 37.52588 14.58157 6220 ft 207 kts 264°
2026-05-05 15:43 37.52430 14.56368 6176 ft 206 kts 264°
2026-05-05 15:44 37.52273 14.54593 6054 ft 200 kts 264°
2026-05-05 15:44 37.52123 14.52895 5939 ft 195 kts 264°
2026-05-05 15:44 37.51973 14.51184 5868 ft 195 kts 264°
2026-05-05 15:44 37.51822 14.49479 5793 ft 195 kts 264°
2026-05-05 15:45 37.51673 14.47802 5713 ft 193 kts 264°
2026-05-05 15:45 37.51381 14.46215 5571 ft 180 kts 244°
2026-05-05 15:45 37.50627 14.45034 5407 ft 166 kts 218°
2026-05-05 15:45 37.49628 14.44401 5253 ft 159 kts 195°
2026-05-05 15:46 37.48523 14.44300 5126 ft 159 kts 176°
2026-05-05 15:46 37.47431 14.44450 5003 ft 158 kts 173°
2026-05-05 15:46 37.46342 14.44626 4943 ft 158 kts 173°
2026-05-05 15:46 37.45237 14.44801 4921 ft 159 kts 173°
2026-05-05 15:47 37.44144 14.44966 4830 ft 158 kts 173°
2026-05-05 15:47 37.43434 14.45154 4775 ft 158 kts 161°
2026-05-05 15:47 37.42252 14.46199 4740 ft 158 kts 129°
2026-05-05 15:47 37.41739 14.47408 4706 ft 155 kts 107°
2026-05-05 15:48 37.41484 14.48722 4420 ft 154 kts 104°
2026-05-05 15:48 37.41234 14.50032 4024 ft 156 kts 104°
2026-05-05 15:48 37.41163 14.51372 3634 ft 156 kts 77°
2026-05-05 15:48 37.41522 14.52629 3306 ft 152 kts 69°
2026-05-05 15:49 37.41860 14.53857 3001 ft 145 kts 74°
2026-05-05 15:49 37.42097 14.55090 2937 ft 145 kts 79°
2026-05-05 15:49 37.42290 14.56350 2926 ft 146 kts 80°
2026-05-05 15:49 37.42470 14.57598 2918 ft 146 kts 81°
2026-05-05 15:50 37.42640 14.58871 2909 ft 146 kts 82°
2026-05-05 15:50 37.42795 14.60124 2910 ft 146 kts 83°
2026-05-05 15:50 37.42940 14.61397 2911 ft 148 kts 83°
2026-05-05 15:50 37.43079 14.62717 2930 ft 154 kts 84°
2026-05-05 15:51 37.43210 14.64053 2928 ft 154 kts 84°
2026-05-05 15:51 37.43332 14.65387 2929 ft 154 kts 85°
2026-05-05 15:51 37.43449 14.66743 2937 ft 154 kts 85°
2026-05-05 15:51 37.43560 14.68092 2947 ft 154 kts 85°
2026-05-05 15:52 37.43664 14.69403 2944 ft 148 kts 86°
2026-05-05 15:52 37.43763 14.70678 2960 ft 147 kts 86°
2026-05-05 15:52 37.43860 14.71957 2972 ft 147 kts 86°
2026-05-05 15:52 37.43957 14.73241 2977 ft 147 kts 86°
2026-05-05 15:53 37.44054 14.74527 2980 ft 147 kts 86°
2026-05-05 15:53 37.44152 14.75795 2981 ft 147 kts 86°
2026-05-05 15:53 37.44251 14.77076 2982 ft 147 kts 86°
2026-05-05 15:53 37.44351 14.78364 2982 ft 147 kts 86°
2026-05-05 15:54 37.44452 14.79644 2982 ft 147 kts 86°
2026-05-05 15:54 37.44554 14.80926 2981 ft 147 kts 86°
2026-05-05 15:54 37.44657 14.82197 2976 ft 144 kts 89°
2026-05-05 15:54 37.44758 14.83460 2985 ft 146 kts 86°
2026-05-05 15:55 37.44861 14.84739 2977 ft 145 kts 86°
2026-05-05 15:55 37.44963 14.85990 2975 ft 145 kts 86°
2026-05-05 15:55 37.45067 14.87261 2839 ft 145 kts 86°
2026-05-05 15:55 37.45169 14.88505 2641 ft 142 kts 86°
2026-05-05 15:56 37.45271 14.89740 2453 ft 142 kts 86°
2026-05-05 15:56 37.45372 14.90970 2266 ft 141 kts 86°
2026-05-05 15:56 37.45474 14.92199 2080 ft 140 kts 86°
2026-05-05 15:56 37.45575 14.93411 1897 ft 140 kts 86°
2026-05-05 15:57 37.45679 14.94644 1721 ft 143 kts 88°
2026-05-05 15:57 37.45781 14.95894 1534 ft 142 kts 85°
2026-05-05 15:57 37.45886 14.97125 1344 ft 139 kts 89°
2026-05-05 15:57 37.45985 14.98310 1155 ft 136 kts 87°
2026-05-05 15:58 37.46080 14.99496 975 ft 136 kts 85°
2026-05-05 15:58 37.46177 15.00678 804 ft 135 kts 84°
2026-05-05 15:58 37.46276 15.01831 624 ft 132 kts 84°
2026-05-05 15:58 37.46383 15.02981 462 ft 131 kts 84°
2026-05-05 15:59 37.46475 15.04107 317 ft 130 kts 84°
2026-05-05 15:59 37.46560 15.05233 171 ft 129 kts 84°
2026-05-05 15:59 37.46656 15.06349 36 ft 125 kts 84°
2026-05-05 15:59 37.46706 15.06909 34 ft 39 kts 84°
2026-05-05 16:00 37.46732 15.07207 36 ft 35 kts 83°
2026-05-05 16:00 37.46754 15.07485 36 ft 26 kts 86°
2026-05-05 16:00 37.46806 15.07675 36 ft 20 kts 58°
2026-05-05 16:00 37.46847 15.07754 36 ft 0 kts 56°
2026-05-05 16:01 37.46849 15.07759 36 ft 2 kts 56°
2026-05-05 16:01 37.46875 15.07798 37 ft 6 kts 32°
2026-05-05 16:01 37.46919 15.07793 37 ft 6 kts 323°
2026-05-05 16:02 37.46933 15.07741 38 ft 6 kts 270°
2026-05-05 16:02 37.46930 15.07680 38 ft 7 kts 263°
2026-05-05 16:02 37.46923 15.07608 38 ft 9 kts 263°
2026-05-05 16:02 37.46917 15.07522 37 ft 10 kts 265°
2026-05-05 16:03 37.46910 15.07428 37 ft 11 kts 264°
2026-05-05 16:03 37.46902 15.07328 37 ft 12 kts 264°
2026-05-05 16:03 37.46892 15.07217 37 ft 12 kts 263°
2026-05-05 16:03 37.46881 15.07105 36 ft 12 kts 264°
2026-05-05 16:04 37.46873 15.07000 36 ft 12 kts 264°
2026-05-05 16:04 37.46867 15.06911 35 ft 10 kts 265°
2026-05-05 16:04 37.46899 15.06867 35 ft 7 kts
2026-05-05 16:04 37.46933 15.06865 36 ft 3 kts 355°
2026-05-05 16:05 37.46934 15.06865 36 ft 0 kts 356°